Regional Weather Roundup
Issued by NWS

Home | Current Version | Previous Version | Graphics & Text | Print | Product List | Glossary On
Versions: 1 2 3 4 5 6 7 8 9 10 11 12 13 14 15 16 17 18 19 20 21 22 23 24 25 26 27
000
ASUS45 KBOU 221207
RWRCO

WEATHER ROUNDUP FOR COLORADO
NATIONAL WEATHER SERVICE DENVER/BOULDER CO
600 AM MDT THU JUN 22 2017

NOTE: "FAIR" INDICATES FEW OR NO CLOUDS BELOW 12000 FEET WITH NO
SIGNIFICANT WEATHER AND/OR OBSTRUCTIONS TO VISIBILITY.

COZ001>005-013-030-031-221300-
...NORTHWEST COLORADO...

CITY           SKY/WX    TMP DP  RH WIND       PRES   REMARKS
CRAIG          FAIR      51  45  79 CALM      30.06R
HAYDEN         FAIR      55  39  54 SE13      30.08R
MEEKER         FAIR      52  42  69 NE6       30.06R
RABBIT EARS PA FAIR      54  32  43 SW5       30.36S
STEAMBOAT SPGS FAIR      50  41  70 NW3       30.11R
WALDEN         FAIR      50  37  62 SE6       30.19S
$$

COZ006>008-011-221300-
...WEST CENTRAL VALLEYS...

CITY           SKY/WX    TMP DP  RH WIND       PRES   REMARKS
GRAND JUNCTION FAIR      75  38  26 VRB3      29.92R
MONTROSE       FAIR      63  38  39 VRB7      30.04S
EAGLE          FAIR      53  37  54 CALM      30.15R
RIFLE          FAIR      61  39  44 E7        30.02S
DELTA          FAIR      68  38  33 NE7       29.99F
NUCLA          FAIR      63  32  31 SE12      30.07S
$$

COZ017>023-064>068-221300-
...SOUTHWEST COLORADO...

CITY           SKY/WX    TMP DP  RH WIND       PRES   REMARKS
DURANGO        FAIR      55  34  45 S7        30.10R
CORTEZ         FAIR      55  42  61 SE3       30.04R
PAGOSA SPRINGS FAIR      51  36  54 CALM      30.19S
TELLURIDE      FAIR      57  32  37 SE7       30.32S
WOLF CREEK PAS FAIR      54  27  35 W8        30.57S
$$

COZ009-010-012-014-032>034-037-058>063-221300-
...CENTRAL COLORADO...

CITY           SKY/WX    TMP DP  RH WIND       PRES   REMARKS
ASPEN          FAIR      50  37  61 SW9       30.19R
BUENA VISTA    FAIR      53  33  46 N5        30.22R
COPPER MTN     FAIR      54  28  37 W7        30.51S
BERTHOUD PASS  FAIR      45  32  61 NW33G39   30.49S
COTTONWOOD PAS FAIR      64  23  20 W7        30.35S
GUNNISON       FAIR      46  37  71 W3        30.24R
KREMMLING      NOT AVBL
LEADVILLE      FAIR      40  29  64 SE3       30.35R
MONARCH PASS   MOCLDY    52  30  43 SW15      30.62S
SALIDA         FAIR      57  34  41 NW5       30.27R
SUNLIGHT       FAIR      54  28  37 S6        30.44S
WILKERSON PASS FAIR      54  27  35 W7        30.49R
$$

COZ069>075-221300-
...SAN LUIS VALLEY/SANGRE DE CRISTO MOUNTAINS...

CITY           SKY/WX    TMP DP  RH WIND       PRES   REMARKS
ALAMOSA        FAIR      47  42  83 E5        30.18R
DEL NORTE      FAIR      56  31  38 W15       30.21R
LA VETA PASS   FAIR      57  32  38 SW17G24   30.47S
SAGUACHE       FAIR      54  32  43 N9        30.21S
$$

COZ035-036-038>040-221300-
...NORTHERN COLORADO FRONT RANGE...

CITY           SKY/WX    TMP DP  RH WIND       PRES   REMARKS
DENVER INTL AP MOCLDY    72  38  29 SW12      29.91F
DMNS CITY PARK   N/A     70  40  33 SW3G9     29.92S
AURORA         MOCLDY    67  40  37 S12       29.94F
FRONT RANGE AP FAIR      72  37  28 SW14      29.95R
ERIE MUNI ARPT FAIR      74  36  24 S7        29.88F
BOULDER MUN AP FAIR      77  37  24 W6        29.90S
CENTENNIAL     MOCLDY    68  37  32 SW8       29.97S
BROOMFIELD     FAIR      75  36  23 SW8       29.94F
FORT COLLINS   FAIR      69  44  40 NE9       29.89S
LONGMONT       FAIR      77  39  25 N6        29.89S
$$

COZ041-046-047-076>085-087-088-221300-
...PIKES PEAK/PALMER DIVIDE AND SOUTHERN FOOTHILLS...

CITY           SKY/WX    TMP DP  RH WIND       PRES   REMARKS
COLO. SPRINGS  MOCLDY    69  37  30 E5        30.01S
A. F. ACADEMY  CLOUDY    60  39  44 NE6       30.04R
SCHRIEVER AFB  NOT AVBL
CHEYENNE MTN   NOT AVBL
ELLICOTT       FAIR     N/A N/A N/A SE6       30.00R
FALCON           N/A     68  32  27 W13       30.08R
FORT CARSON    FAIR      61  41  46 NW5       29.98R
LIMON          FAIR      50  40  68 N3        29.95R
MONUMENT HILL  FAIR      63  34  34 SW8       30.10R
CANON CITY     CLEAR     72  37  28 W14       29.96R
WALSENBURG     FAIR      61  43  51 MISG      30.02S
TRINIDAD       FAIR      68  49  50 W20       29.99F
$$

COZ042>045-048>051-090-091-221300-
...NORTHEAST COLORADO...

CITY           SKY/WX    TMP DP  RH WIND       PRES   REMARKS
GREELEY ARPT   FAIR      61  48  62 N7        29.87S
AKRON          FAIR      71  38  29 W16       29.85R
BURLINGTON     FAIR      70  52  52 SW16      29.83S
WRAY           FAIR      63  50  63 SW10      29.76S
YUMA           FAIR      61  43  51 W8        29.80R
STERLING       FAIR      59  50  72 S6        29.81R
HOLYOKE        NOT AVBL
FORT MORGAN    FAIR      61  43  51 NW12      29.85S
$$

COZ086-089-092>099-221300-
...SOUTHEAST COLORADO...

CITY           SKY/WX    TMP DP  RH WIND       PRES   REMARKS
PUEBLO         FAIR      59  49  69 CALM      29.91R
LA JUNTA       FAIR      72  54  53 SW16      29.86S
LAMAR          FAIR      71  55  56 SW10      29.80R
SPRINGFIELD      N/A     65  55  70 S15       29.88S
$$




USA.gov is the U.S. government's official web portal to all federal, state and local government web resources and services.